When you browse on this site, cookies collect data to enhance your experience and personalize the content and advertising you see.
Visit our Privacy Policy to learn more. By continuing to use the site, you agree to this use of cookies and data.
  • In Spain
  • List of Countries
  • For 7 days
  • Water Temperature
  • Weather Map
  • Weather Widgets
  • user-avatar
    Login

    Hourly Weather Zhezqazghan

    Today, 29 May, Friday

    Time Temperature Precipitation Wind Pressure Humidity
    00:00 +26°C° 0 mm 6 mps 741 mmHg 16%
    01:00 +24°C° 0 mm 6 mps 741 mmHg 16%
    02:00 +23°C° 0 mm 6 mps 741 mmHg 17%
    03:00 +22°C° 0 mm 6 mps 740 mmHg 17%
    04:00 +22°C° 0 mm 6 mps 740 mmHg 18%
    05:00 +23°C° 0 mm 7 mps 741 mmHg 16%
    06:00 +26°C° 0 mm 8 mps 741 mmHg 13%
    07:00 +27°C° 0 mm 9 mps 741 mmHg 11%
    08:00 +29°C° 0 mm 9 mps 741 mmHg 10%
    09:00 +31°C° 0 mm 10 mps 741 mmHg 10%
    10:00 +33°C° 0 mm 11 mps 741 mmHg 9%
    11:00 +33°C° 0 mm 11 mps 741 mmHg 9%
    12:00 +34°C° 0 mm 10 mps 741 mmHg 9%
    13:00 +36°C° 0 mm 10 mps 740 mmHg 9%
    14:00 +36°C° 0 mm 10 mps 740 mmHg 9%
    15:00 +35°C° 0 mm 9 mps 740 mmHg 8%
    16:00 +35°C° 0 mm 9 mps 740 mmHg 8%
    17:00 +34°C° 0 mm 8 mps 740 mmHg 9%
    18:00 +32°C° 0 mm 7 mps 740 mmHg 10%
    19:00 +30°C° 0 mm 6 mps 740 mmHg 11%
    20:00 +29°C° 0 mm 6 mps 740 mmHg 12%
    21:00 +28°C° 0 mm 6 mps 740 mmHg 13%
    22:00 +27°C° 0 mm 6 mps 740 mmHg 13%
    23:00 +27°C° 0 mm 6 mps 740 mmHg 14%

    Tomorrow, 30 May, Saturday

    Time Temperature Precipitation Wind Pressure Humidity
    00:00 +26°C° 0 mm 6 mps 740 mmHg 15%
    01:00 +25°C° 0 mm 5 mps 739 mmHg 15%
    02:00 +25°C° 0 mm 5 mps 740 mmHg 16%
    03:00 +23°C° 0 mm 5 mps 740 mmHg 17%
    04:00 +23°C° 0 mm 5 mps 740 mmHg 18%
    05:00 +26°C° 0 mm 6 mps 740 mmHg 16%
    06:00 +28°C° 0 mm 7 mps 740 mmHg 14%
    07:00 +31°C° 0 mm 8 mps 741 mmHg 12%
    08:00 +32°C° 0 mm 8 mps 741 mmHg 11%
    09:00 +34°C° 0 mm 8 mps 741 mmHg 10%
    10:00 +35°C° 0 mm 9 mps 741 mmHg 9%
    11:00 +37°C° 0 mm 9 mps 741 mmHg 10%
    12:00 +38°C° 0 mm 9 mps 741 mmHg 10%
    13:00 +39°C° 0 mm 9 mps 741 mmHg 10%
    14:00 +39°C° 0 mm 8 mps 740 mmHg 10%
    15:00 +39°C° 0 mm 8 mps 740 mmHg 11%
    16:00 +39°C° 0 mm 8 mps 740 mmHg 11%
    17:00 +38°C° 0 mm 7 mps 740 mmHg 13%
    18:00 +35°C° 0 mm 6 mps 740 mmHg 14%
    19:00 +34°C° 0 mm 5 mps 740 mmHg 16%
    20:00 +33°C° 0 mm 4 mps 740 mmHg 17%
    21:00 +32°C° 0 mm 4 mps 741 mmHg 18%
    22:00 +30°C° 0 mm 4 mps 741 mmHg 18%
    23:00 +29°C° 0 mm 4 mps 741 mmHg 19%

    Day after tomorrow, 31 May, Sunday

    Time Temperature Precipitation Wind Pressure Humidity
    00:00 +28°C° 0 mm 3 mps 740 mmHg 20%
    01:00 +28°C° 0 mm 3 mps 740 mmHg 21%
    02:00 +28°C° 0 mm 4 mps 740 mmHg 22%
    03:00 +27°C° 0 mm 4 mps 740 mmHg 22%
    04:00 +27°C° 0 mm 4 mps 740 mmHg 23%
    05:00 +29°C° 0 mm 5 mps 741 mmHg 21%
    06:00 +32°C° 0 mm 5 mps 741 mmHg 19%
    07:00 +33°C° 0 mm 6 mps 741 mmHg 18%
    08:00 +35°C° 0 mm 7 mps 741 mmHg 16%
    09:00 +36°C° 0 mm 7 mps 741 mmHg 14%
    10:00 +38°C° 0 mm 8 mps 741 mmHg 13%
    11:00 +39°C° 0 mm 8 mps 741 mmHg 12%
    12:00 +40°C° 0 mm 8 mps 740 mmHg 11%
    13:00 +41°C° 0 mm 7 mps 740 mmHg 10%
    14:00 +41°C° 0 mm 7 mps 740 mmHg 10%
    15:00 +41°C° 0 mm 7 mps 739 mmHg 10%
    16:00 +40°C° 0 mm 6 mps 739 mmHg 9%
    17:00 +39°C° 0 mm 5 mps 739 mmHg 11%
    18:00 +36°C° 0 mm 5 mps 739 mmHg 12%
    19:00 +35°C° 0 mm 4 mps 739 mmHg 13%
    20:00 +34°C° 0 mm 4 mps 739 mmHg 13%
    21:00 +33°C° 0 mm 4 mps 739 mmHg 13%
    22:00 +32°C° 0 mm 4 mps 739 mmHg 13%
    23:00 +32°C° 0 mm 4 mps 739 mmHg 14%

    1 June, Monday

    Time Temperature Precipitation Wind Pressure Humidity
    00:00 +32°C° 0 mm 4 mps 739 mmHg 14%
    01:00 +30°C° 0 mm 4 mps 738 mmHg 14%
    02:00 +30°C° 0 mm 4 mps 738 mmHg 15%
    03:00 +30°C° 0 mm 4 mps 738 mmHg 16%
    04:00 +29°C° 0 mm 3 mps 738 mmHg 16%
    05:00 +31°C° 0 mm 3 mps 739 mmHg 15%
    06:00 +35°C° 0 mm 3 mps 739 mmHg 13%
    07:00 +37°C° 0 mm 2 mps 739 mmHg 12%
    08:00 +38°C° 0 mm 2 mps 739 mmHg 11%
    09:00 +39°C° 0 mm 2 mps 739 mmHg 10%
    10:00 +40°C° 0 mm 2 mps 739 mmHg 9%
    11:00 +40°C° 0 mm 2 mps 739 mmHg 9%
    12:00 +41°C° 0 mm 2 mps 739 mmHg 8%
    13:00 +41°C° 0 mm 2 mps 739 mmHg 8%
    14:00 +42°C° 0 mm 3 mps 739 mmHg 8%
    15:00 +42°C° 0 mm 3 mps 738 mmHg 8%
    16:00 +43°C° 0 mm 3 mps 738 mmHg 8%
    17:00 +40°C° 0 mm 3 mps 738 mmHg 9%
    18:00 +40°C° 0 mm 4 mps 738 mmHg 10%
    19:00 +37°C° 0 mm 4 mps 738 mmHg 11%
    20:00 +36°C° 0 mm 3 mps 738 mmHg 11%
    21:00 +35°C° 0 mm 3 mps 738 mmHg 12%
    22:00 +32°C° 0 mm 2 mps 738 mmHg 12%
    23:00 +32°C° 0 mm 2 mps 738 mmHg 13%

    2 June, Tuesday

    Time Temperature Precipitation Wind Pressure Humidity
    00:00 +31°C° 0 mm 2 mps 738 mmHg 14%
    01:00 +30°C° 0 mm 2 mps 738 mmHg 15%
    02:00 +30°C° 0 mm 2 mps 738 mmHg 16%
    03:00 +29°C° 0 mm 2 mps 738 mmHg 16%
    04:00 +29°C° 0 mm 2 mps 738 mmHg 16%
    05:00 +31°C° 0 mm 2 mps 738 mmHg 15%
    06:00 +35°C° 0 mm 3 mps 738 mmHg 13%
    07:00 +37°C° 0 mm 3 mps 739 mmHg 12%
    08:00 +38°C° 0 mm 3 mps 739 mmHg 11%
    09:00 +40°C° 0 mm 2 mps 739 mmHg 10%
    10:00 +41°C° 0 mm 2 mps 739 mmHg 9%
    11:00 +41°C° 0 mm 2 mps 739 mmHg 8%
    12:00 +42°C° 0 mm 2 mps 738 mmHg 8%
    13:00 +42°C° 0 mm 2 mps 738 mmHg 8%
    14:00 +43°C° 0 mm 2 mps 738 mmHg 7%
    15:00 +43°C° 0 mm 2 mps 738 mmHg 7%
    16:00 +44°C° 0 mm 3 mps 737 mmHg 7%
    17:00 +41°C° 0 mm 2 mps 737 mmHg 9%
    18:00 +39°C° 0 mm 2 mps 737 mmHg 10%
    19:00 +37°C° 0 mm 2 mps 737 mmHg 12%
    20:00 +36°C° 0 mm 2 mps 737 mmHg 12%
    21:00 +36°C° 0 mm 3 mps 737 mmHg 12%
    22:00 +35°C° 0 mm 3 mps 737 mmHg 12%
    23:00 +34°C° 0 mm 4 mps 737 mmHg 13%

    3 June, Wednesday

    Time Temperature Precipitation Wind Pressure Humidity
    00:00 +34°C° 0 mm 4 mps 736 mmHg 14%
    01:00 +33°C° 0 mm 5 mps 736 mmHg 14%
    02:00 +33°C° 0 mm 4 mps 736 mmHg 15%
    03:00 +32°C° 0 mm 4 mps 736 mmHg 16%
    04:00 +30°C° 0 mm 4 mps 736 mmHg 17%
    05:00 +33°C° 0 mm 4 mps 736 mmHg 16%
    06:00 +35°C° 0 mm 5 mps 736 mmHg 15%
    07:00 +38°C° 0 mm 6 mps 736 mmHg 14%
    08:00 +39°C° 0 mm 6 mps 736 mmHg 12%
    09:00 +41°C° 0 mm 5 mps 736 mmHg 11%
    10:00 +43°C° 0 mm 5 mps 736 mmHg 9%
    11:00 +45°C° 0 mm 6 mps 736 mmHg 8%
    12:00 +46°C° 0 mm 6 mps 736 mmHg 8%
    13:00 +47°C° 0 mm 7 mps 736 mmHg 7%
    14:00 +47°C° 0 mm 7 mps 735 mmHg 7%
    15:00 +47°C° 0 mm 7 mps 735 mmHg 7%
    16:00 +46°C° 0 mm 7 mps 735 mmHg 7%
    17:00 +45°C° 0 mm 6 mps 735 mmHg 8%
    18:00 +42°C° 0 mm 5 mps 735 mmHg 9%
    19:00 +40°C° 0 mm 4 mps 735 mmHg 10%
    20:00 +38°C° 0 mm 4 mps 735 mmHg 11%
    21:00 +36°C° 0 mm 4 mps 736 mmHg 13%
    22:00 +35°C° 0 mm 3 mps 736 mmHg 14%
    23:00 +34°C° 0 mm 3 mps 736 mmHg 16%
    Show more